Temp
56 56 57 57 57 57 57 58 58 58 58 58 59 59 59 59 59 60 66 73 67 64 69 74 78 73 76 78 73 80 80 82 80 74 75 77 77 81 69 77 75 77 78 79 81 74 69 88 74 71 88 88 92 93
56 57 57 57 57 57 57 57 57 57 58 58 59 59 59 59 59 59 60 72 74 64 67 74 76 78 77 78 75 78 76 77 81 77 80 81 78 83 72 67 77 73 86 83 86 83 90 95 94 97 97 89 94 93
56 56 56 56 56 56 57 57 57 57 58 58 58 59 59 59 59 59 62 63 64 61 65 69 70 79 83 81 84 70 77 82 80 85 76 76 73 77 63 61 62 76 81 76 86 82 89 88 91 100 99 97 99 100
56 56 56 56 56 56 56 57 57 57 57 58 58 58 59 58 58 58 61 67 63 60 57 73 85 81 88 87 83 82 80 83 82 80 75 74 73 86 58 61 57 65 65 73 74 68 78 96 98 100 100 101 101 102
55 55 55 55 55 56 56 56 56 56 57 57 57 58 58 58 57 60 63 66 67 57 49 58 70 79 84 85 82 81 80 78 76 73 73 72 80 81 79 73 54 61 60 67 81 68 75 92 98 101 99 99 100 99
54 55 55 55 55 55 55 55 56 56 56 57 57 58 58 58 57 54 49 65 69 66 53 55 75 76 81 82 79 78 78 77 76 73 73 78 83 78 73 74 74 67 68 71 73 91 85 99 101 103 99 100 101 100
55 55 55 55 55 55 55 55 56 56 56 56 56 57 57 56 56 50 51 59 58 64 53 56 65 78 80 81 78 77 79 76 76 74 72 74 76 76 76 71 83 73 77 76 87 89 78 96 96 101 101 100 93 99
55 55 55 55 56 56 56 56 56 56 56 56 56 56 56 54 54 52 61 60 61 59 60 52 61 72 82 73 70 77 73 74 74 73 75 73 76 77 70 80 85 88 89 84 81 94 95 100 100 98 99 97 94 92
55 56 56 57 57 56 56 55 56 56 56 56 56 54 52 51 48 57 61 61 65 55 49 57 58 64 78 75 76 74 76 67 76 69 69 73 72 68 76 78 83 86 87 89 92 97 99 96 94 95 95 94 91 90
56 56 57 57 58 57 57 56 56 56 56 55 54 48 45 51 60 61 54 53 53 57 50 51 63 59 64 74 72 71 73 67 63 68 76 68 69 79 83 86 86 86 89 92 90 90 93 91 92 93 92 92 91 89
56 56 57 58 58 57 56 56 56 55 55 52 47 47 58 61 55 52 47 47 53 51 58 58 60 60 74 60 66 71 66 68 62 68 68 68 68 76 83 83 88 88 90 93 95 97 96 95 93 92 91 90 88 86
56 56 58 56 56 56 56 55 55 58 58 52 54 54 53 50 48 45 44 51 51 52 63 60 62 64 68 65 62 64 59 65 61 76 69 65 74 78 80 83 87 87 89 90 88 95 88 90 93 90 88 86 85 84
56 56 56 56 55 55 55 55 55 55 56 54 51 46 45 50 39 43 40 45 52 60 65 67 63 67 68 69 61 59 54 61 75 67 67 73 76 79 80 84 86 86 78 75 72 70 82 85 88 88 85 85 84 83
55 56 55 55 55 55 54 54 54 55 53 47 45 37 45 46 53 56 58 58 63 65 66 64 67 66 69 63 63 56 59 70 62 60 65 76 75 76 83 84 83 75 72 67 66 63 65 82 83 85 85 85 83 81
54 54 56 55 55 54 54 55 56 57 51 46 50 41 50 59 64 63 69 65 69 62 62 57 64 69 64 58 64 62 61 59 62 64 73 80 70 78 79 80 77 70 70 65 66 63 63 77 80 81 83 83 82 80
53 53 55 55 55 55 55 55 57 56 51 50 54 54 61 58 61 61 55 53 65 62 59 53 58 58 56 59 61 60 61 61 67 66 74 78 74 76 76 74 69 72 68 67 67 65 69 78 79 76 81 80 80 80
53 52 55 55 55 55 55 54 55 49 52 53 56 64 62 61 59 60 59 57 62 56 53 57 55 54 65 60 61 68 65 63 60 68 73 72 74 75 76 76 76 71 71 72 72 70 70 78 78 79 77 78 81 80
51 55 54 54 55 54 57 54 49 50 48 54 54 59 61 61 58 59 59 56 50 52 57 56 64 60 59 59 64 70 71 64 72 68 74 75 76 75 75 74 77 77 77 76 76 78 76 75 77 77 78 78 77 74
53 54 54 54 55 52 49 52 52 43 50 57 61 63 62 62 63 65 63 63 63 65 61 60 56 56 60 69 67 71 72 72 72 72 73 75 75 74 74 74 75 76 76 76 78 78 77 77 81 80 79 79 77 77
53 53 54 54 54 49 45 47 51 46 50 59 60 59 59 61 59 60 61 58 59 59 57 57 57 60 62 68 69 67 69 70 70 69 71 72 74 73 69 74 77 75 78 78 79 70 76 77 78 76 79 77 77 78
52 53 53 53 51 50 48 48 46 48 51 50 54 56 55 57 55 56 58 64 57 57 57 65 64 65 67 68 67 66 66 66 65 65 64 67 72 70 69 73 79 81 80 78 77 70 75 78 77 79 80 77 79 77
53 54 52 52 49 49 46 51 47 50 48 49 49 51 49 49 52 53 58 58 59 62 65 65 64 64 63 60 60 62 63 64 63 60 57 59 64 65 67 75 80 78 74 69 64 67 72 81 82 79 74 74 72 74
54 54 51 50 46 43 44 49 44 47 45 47 50 47 47 49 51 56 53 55 58 63 61 59 58 59 61 63 62 60 61 59 59 60 61 63 65 66 68 66 74 77 73 66 65 75 79 67 68 76 77 74 72 71
55 51 48 45 45 43 47 45 45 48 49 47 47 45 46 47 51 48 46 48 52 58 58 59 59 59 60 59 58 58 58 58 61 61 62 62 61 62 63 62 64 65 64 65 67 76 80 81 70 79 76 75 77 75
47 52 54 42 47 48 49 48 47 47 46 47 47 46 47 49 47 46 45 49 51 54 57 61 58 56 57 58 59 58 62 62 62 61 62 63 63 62 63 64 63 68 73 74 78 79 79 79 77 77 74 74 73 70
44 62 52 62 61 57 57 55 52 48 49 48 47 49 49 48 46 43 46 49 51 53 54 55 54 55 56 58 58 60 64 68 70 67 72 70 73 72 70 71 71 73 80 79 77 75 75 74 73 73 71 66 59 73
51 61 61 65 65 63 60 62 65 59 52 48 48 47 48 45 43 47 51 53 53 55 55 55 55 58 57 60 66 71 74 77 78 74 77 79 80 79 77 74 72 74 79 78 77 75 71 72 73 73 75 71 70 73
62 63 59 63 60 64 59 60 58 58 59 62 59 51 48 48 46 51 53 55 57 61 61 65 66 66 70 75 78 78 78 81 82 82 82 81 81 81 79 79 78 53 75 76 76 74 73 74 73 72 70 69 72 71
60 65 64 62 63 62 59 58 59 64 66 66 58 56 55 57 57 57 64 66 68 68 64 67 75 79 80 80 81 82 82 81 76 73 72 73 75 77 81 80 80 81 81 81 54 63 71 75 78 80 80 80 80 79
62 72 62 61 59 56 60 65 65 68 71 71 70 67 67 68 72 77 77 76 76 76 77 79 79 80 79 79 78 80 83 82 80 77 74 74 77 81 81 82 82 84 84 83 81 78 53 70 68 79 77 79 79 78
68 72 70 68 64 68 69 72 70 70 74 70 73 69 67 69 74 77 73 69 75 81 78 77 80 80 78 77 78 77 75 79 79 78 79 82 82 80 79 80 81 82 82 81 81 81 80 76 78 77 77 77 77 73
71 70 69 65 68 74 76 73 72 70 71 70 70 73 72 70 67 74 81 82 81 78 68 75 78 77 81 81 81 79 65 79 77 77 76 78 77 77 80 81 82 81 80 79 79 79 79 78 77 77 77 77 77 77
71 72 72 73 70 68 72 70 67 67 70 70 70 73 74 72 67 75 83 84 80 79 79 81 82 81 79 79 78 76 70 72 56 45 47 46 43 52 71 78 77 77 77 77 78 78 77 76 76 75 75 75 76 76
MSLP
1020.29 1020.09 1020.02 1019.99 1019.87 1019.83 1019.76 1019.66 1019.48 1019.40 1019.30 1019.11 1019.16 1019.04 1018.93 1018.92 1018.82 1018.63 1016.67 1015.79 1015.05 1013.21 1011.02 1010.06 1008.80 1008.34 1007.38 1006.22 1004.97 1003.93 1003.06 1002.56 1002.05 1001.18 1000.48 999.43 998.46 997.58 998.31 998.38 997.69 997.21 995.98 995.30 994.98 994.84 994.74 995.27 996.85 998.47 995.28 996.02 995.74 996.10
1019.56 1019.50 1019.45 1019.35 1019.22 1019.14 1019.11 1019.00 1018.87 1018.85 1018.75 1018.76 1018.68 1018.60 1018.57 1018.64 1018.62 1018.63 1017.29 1015.86 1015.20 1014.62 1011.93 1011.13 1010.53 1009.91 1009.29 1008.46 1007.69 1006.07 1004.74 1003.80 1002.64 1001.87 1000.95 999.84 999.09 998.36 999.76 999.85 999.96 999.43 997.00 996.33 995.09 994.09 994.22 994.54 994.76 994.96 994.70 995.15 995.46 996.01
1019.09 1018.93 1018.78 1018.71 1018.61 1018.45 1018.33 1018.29 1018.30 1018.28 1018.16 1018.16 1018.14 1018.11 1018.08 1018.20 1018.25 1018.34 1017.20 1016.77 1016.07 1014.73 1012.42 1010.60 1009.10 1008.62 1008.90 1008.82 1008.53 1007.65 1005.90 1004.96 1004.15 1003.69 1003.37 1001.87 1000.12 1000.26 1001.76 1002.92 1002.29 1000.14 1000.21 999.46 995.88 995.98 995.62 994.93 996.63 994.79 994.58 994.51 995.21 995.95
1018.34 1018.14 1017.95 1017.88 1017.86 1017.72 1017.60 1017.58 1017.63 1017.62 1017.57 1017.58 1017.56 1017.61 1017.54 1017.65 1017.85 1017.92 1017.22 1016.36 1016.19 1015.20 1012.80 1007.82 1006.78 1006.68 1006.58 1007.03 1007.61 1007.54 1006.83 1006.51 1005.79 1004.99 1004.09 1002.86 1001.65 1000.47 1003.05 1004.19 1004.86 1005.39 1005.12 1001.18 999.13 998.98 996.03 994.68 994.23 994.23 994.02 994.73 995.33 996.15
1017.65 1017.44 1017.24 1017.10 1017.02 1016.98 1016.92 1016.97 1017.02 1017.02 1017.03 1017.02 1017.05 1017.06 1017.07 1017.31 1017.45 1017.50 1017.10 1016.54 1015.90 1015.84 1013.77 1010.91 1008.98 1007.32 1006.66 1006.24 1006.38 1006.98 1007.16 1006.78 1006.29 1005.50 1004.48 1003.32 1002.45 1001.86 1001.78 1002.98 1004.73 1005.46 1004.94 1004.12 998.97 999.24 998.72 995.38 993.91 994.08 994.61 995.00 995.63 996.63
1016.74 1016.59 1016.37 1016.27 1016.16 1016.14 1016.19 1016.25 1016.31 1016.35 1016.42 1016.46 1016.48 1016.56 1016.65 1016.83 1017.22 1017.72 1017.34 1015.97 1015.65 1015.38 1014.95 1011.72 1007.96 1006.35 1005.52 1005.60 1006.11 1006.24 1006.56 1006.64 1006.41 1005.60 1004.67 1003.74 1003.32 1003.13 1002.21 1001.78 1001.90 1003.54 1002.32 999.89 999.77 995.24 996.32 994.54 994.42 994.78 995.34 995.58 996.23 997.02
1015.98 1015.74 1015.60 1015.45 1015.38 1015.28 1015.31 1015.48 1015.61 1015.69 1015.80 1015.96 1016.14 1016.15 1016.28 1016.59 1017.00 1017.26 1016.81 1016.08 1016.06 1015.49 1015.02 1012.01 1007.60 1005.00 1005.26 1005.12 1005.75 1005.84 1006.04 1006.10 1006.01 1005.55 1004.82 1004.00 1003.36 1003.29 1001.96 1001.48 1000.78 999.95 998.20 1000.43 996.99 995.26 995.91 995.04 994.98 995.44 995.92 996.45 997.16 997.97
1015.74 1015.54 1015.26 1015.00 1014.82 1014.70 1014.58 1014.75 1015.06 1015.22 1015.36 1015.64 1015.90 1016.01 1016.24 1016.70 1017.09 1017.05 1016.00 1015.73 1015.82 1015.48 1014.64 1012.27 1007.84 1004.60 1004.38 1004.40 1004.96 1005.48 1005.36 1005.61 1005.50 1005.08 1004.34 1003.38 1002.80 1002.47 1001.09 1000.46 999.61 998.65 997.87 997.32 996.74 994.58 995.52 995.25 996.08 996.37 997.13 997.69 998.59 999.59
1015.26 1015.08 1014.79 1014.47 1014.23 1014.20 1014.30 1014.51 1014.81 1015.12 1015.35 1015.60 1015.92 1016.30 1016.63 1016.70 1016.61 1015.80 1015.84 1015.98 1015.72 1016.13 1014.62 1011.74 1007.94 1004.52 1004.07 1003.98 1004.14 1004.97 1004.76 1004.62 1004.49 1004.17 1003.99 1003.38 1001.38 999.70 999.64 999.82 999.09 998.93 998.46 997.88 996.92 996.56 995.82 995.93 996.87 997.71 998.06 998.56 999.67 1000.68
1014.98 1014.80 1014.56 1014.34 1014.14 1014.01 1014.12 1014.32 1014.61 1014.96 1015.25 1015.80 1016.20 1016.39 1016.16 1015.86 1015.52 1015.88 1016.31 1015.90 1015.50 1014.84 1014.67 1011.76 1008.96 1007.01 1005.73 1003.44 1003.60 1004.31 1004.12 1004.00 1003.26 1003.01 1002.63 1001.96 1000.38 999.69 998.78 998.30 998.33 998.78 998.24 997.46 996.77 996.23 996.00 996.79 997.80 998.31 998.78 999.64 1000.68 1001.75
1014.90 1014.60 1014.23 1014.09 1013.93 1013.88 1013.88 1013.95 1014.13 1014.82 1015.38 1015.70 1015.86 1015.60 1014.88 1015.01 1015.52 1015.25 1014.95 1014.57 1013.37 1012.45 1011.09 1009.42 1008.84 1007.09 1005.34 1004.83 1003.92 1003.55 1003.70 1003.48 1001.93 1000.77 1000.64 999.59 998.76 998.90 998.70 998.03 997.85 998.32 998.08 997.47 996.86 996.32 996.81 997.58 997.91 998.41 999.47 1000.74 1002.01 1003.01
1014.60 1014.32 1014.03 1013.80 1013.41 1013.49 1013.50 1013.45 1013.85 1014.28 1014.54 1015.05 1015.10 1015.44 1015.54 1015.34 1014.78 1014.42 1013.48 1012.55 1011.39 1009.48 1007.40 1007.11 1006.67 1006.81 1005.84 1005.65 1005.24 1004.39 1003.54 1002.26 1000.32 999.79 999.24 998.14 997.78 997.71 997.82 997.56 997.62 998.34 998.42 998.28 997.88 996.87 997.64 997.88 998.00 999.09 1000.60 1002.09 1003.42 1004.28
1014.60 1014.30 1014.14 1013.86 1013.60 1013.48 1013.74 1014.20 1014.34 1014.35 1014.64 1014.96 1015.09 1015.12 1014.77 1013.76 1012.92 1011.94 1010.90 1010.15 1008.48 1007.36 1006.06 1005.29 1005.48 1005.56 1005.79 1005.63 1005.50 1005.14 1003.92 1001.40 1000.36 998.82 997.39 997.09 997.06 996.77 996.82 997.03 997.78 998.84 999.57 1000.29 999.76 1000.30 999.48 997.74 999.92 1000.70 1002.16 1003.58 1004.27 1004.79
1014.69 1014.46 1014.39 1014.30 1014.25 1014.33 1014.53 1014.70 1014.84 1014.92 1014.90 1014.96 1014.56 1013.93 1012.96 1011.12 1009.34 1008.04 1007.14 1006.94 1006.81 1005.83 1005.63 1005.14 1004.32 1004.49 1004.66 1004.74 1004.78 1004.18 1003.97 1000.72 999.52 998.23 996.97 996.68 996.76 997.16 996.64 997.03 998.02 999.61 1000.46 1001.49 1001.66 1001.72 1004.63 1001.74 1001.62 1002.50 1003.93 1004.48 1004.87 1005.40
1014.63 1014.58 1014.52 1014.63 1014.70 1014.77 1014.88 1015.03 1015.14 1015.00 1014.82 1014.37 1013.22 1011.81 1010.10 1008.72 1006.91 1006.54 1005.93 1005.82 1005.17 1005.78 1006.42 1005.98 1004.53 1003.69 1003.94 1004.32 1003.65 1003.20 1001.44 1000.13 999.24 998.10 997.19 996.44 996.54 997.36 997.48 997.86 998.68 1000.06 1000.86 1002.46 1002.81 1002.50 1005.71 1004.53 1004.28 1004.49 1004.78 1005.16 1005.96 1006.28
1014.24 1014.38 1014.15 1014.19 1014.56 1014.87 1015.05 1015.13 1014.99 1014.79 1014.30 1013.19 1011.39 1009.47 1007.94 1007.22 1006.43 1005.95 1006.86 1006.82 1006.06 1006.43 1006.60 1006.84 1004.93 1003.69 1003.74 1003.49 1001.88 1001.15 1000.29 999.29 998.78 998.90 998.06 997.26 997.38 997.94 998.68 998.91 1000.13 1000.70 1001.41 1002.30 1002.95 1004.34 1006.64 1005.89 1004.90 1005.08 1005.97 1006.72 1006.87 1006.85
1014.01 1013.73 1013.39 1013.64 1014.21 1014.77 1015.15 1015.22 1014.54 1014.37 1012.97 1011.07 1008.96 1007.94 1007.32 1006.52 1006.30 1006.24 1006.62 1006.50 1006.63 1006.99 1006.67 1005.62 1004.31 1003.34 1002.50 1001.60 1000.53 999.82 999.62 999.85 999.66 999.82 999.41 999.07 998.76 998.02 999.11 999.70 1000.23 1001.58 1002.08 1002.87 1003.72 1005.00 1005.10 1006.86 1006.56 1006.31 1006.89 1007.13 1007.50 1007.43
1013.49 1013.20 1013.30 1013.54 1014.11 1014.70 1014.76 1014.90 1014.46 1013.44 1011.72 1010.21 1008.87 1007.46 1006.67 1006.57 1006.56 1006.36 1006.20 1006.56 1006.92 1006.70 1005.99 1004.73 1003.50 1001.96 1001.11 1000.49 999.81 999.72 999.86 1000.47 1000.06 999.58 999.32 999.29 999.54 999.60 999.77 1000.11 1000.33 1001.02 1001.69 1002.66 1003.32 1004.12 1004.55 1005.03 1005.76 1006.53 1006.93 1007.10 1007.94 1007.70
1012.68 1012.75 1013.02 1013.36 1013.60 1014.00 1014.12 1014.09 1014.10 1012.88 1010.94 1009.42 1008.07 1007.20 1006.42 1006.09 1006.11 1006.06 1005.86 1005.66 1005.24 1005.01 1004.94 1004.11 1003.66 1002.45 1001.27 1000.46 1000.57 1000.51 1000.87 1000.84 1000.36 1000.36 1000.24 1000.03 999.99 1000.24 1000.50 1000.68 1001.06 1001.63 1002.08 1002.70 1003.35 1003.83 1004.52 1004.50 1004.41 1005.45 1006.08 1006.94 1007.39 1007.47
1011.87 1012.19 1012.64 1013.08 1013.46 1013.79 1013.98 1013.73 1013.63 1012.68 1010.33 1008.22 1007.50 1006.91 1006.50 1005.96 1005.90 1005.74 1005.40 1005.22 1005.00 1004.85 1004.32 1003.67 1003.20 1002.68 1002.40 1002.12 1002.27 1002.37 1002.31 1002.02 1001.59 1001.06 1000.54 1000.49 1000.14 1000.65 1000.87 1000.88 1001.36 1002.18 1002.59 1003.20 1003.66 1004.06 1004.16 1004.44 1004.54 1004.72 1005.14 1006.15 1006.57 1006.92
1011.21 1011.22 1012.20 1012.85 1013.47 1013.68 1013.46 1012.73 1012.47 1011.62 1010.32 1009.26 1008.10 1007.44 1006.72 1006.50 1006.22 1006.00 1005.75 1005.50 1004.88 1004.30 1003.79 1003.24 1003.21 1003.22 1003.46 1003.36 1003.44 1003.29 1003.09 1003.13 1002.74 1002.52 1001.82 1001.12 1000.64 1000.72 1000.93 1000.33 1001.31 1001.94 1002.41 1002.98 1003.35 1003.91 1003.94 1003.60 1003.94 1004.56 1004.91 1005.78 1006.32 1007.38
1011.06 1011.43 1011.87 1012.52 1012.73 1013.11 1013.01 1012.17 1011.83 1011.06 1010.32 1008.98 1008.34 1007.69 1007.30 1006.85 1006.66 1006.79 1006.49 1005.45 1004.88 1004.21 1003.98 1003.93 1004.00 1004.08 1004.03 1003.96 1003.94 1003.78 1003.65 1003.32 1003.27 1003.05 1002.42 1002.20 1001.36 1001.01 1001.17 1000.90 1001.23 1001.98 1003.11 1003.59 1003.39 1003.33 1003.62 1003.67 1004.08 1004.97 1005.68 1006.32 1006.96 1007.71
1010.95 1011.23 1011.38 1011.75 1012.04 1012.16 1011.75 1011.58 1011.26 1010.22 1009.28 1008.42 1008.13 1007.80 1007.60 1007.42 1007.44 1007.39 1006.68 1006.49 1005.84 1005.32 1005.24 1004.92 1004.72 1004.74 1004.25 1003.70 1003.30 1002.86 1002.62 1002.48 1002.82 1002.74 1002.80 1002.14 1001.08 1000.79 1001.28 1001.66 1001.69 1002.26 1003.24 1004.30 1004.39 1003.42 1003.81 1004.36 1004.90 1005.47 1005.95 1006.70 1007.36 1008.00
1010.00 1010.28 1009.99 1010.06 1010.04 1009.82 1009.93 1009.65 1009.56 1008.50 1008.17 1007.95 1007.82 1007.76 1007.78 1007.72 1007.79 1007.53 1007.20 1006.98 1006.69 1006.02 1005.38 1004.59 1004.42 1004.28 1003.96 1003.15 1002.58 1002.65 1002.04 1001.07 1001.12 1001.51 1001.52 1001.81 1001.48 1001.66 1001.76 1002.28 1002.74 1003.14 1003.83 1003.86 1004.96 1003.91 1004.36 1004.40 1004.98 1005.48 1006.23 1006.72 1007.04 1007.62
1008.70 1007.57 1007.05 1007.09 1007.66 1007.36 1006.93 1007.03 1007.23 1007.26 1007.08 1007.20 1007.34 1007.57 1007.64 1007.68 1007.53 1007.39 1007.24 1007.14 1006.71 1006.16 1005.30 1004.59 1004.20 1004.03 1003.43 1002.16 1001.66 1001.86 1001.42 1000.76 1000.46 1001.00 1001.49 1001.32 1001.54 1002.14 1003.00 1003.19 1004.05 1004.44 1004.36 1004.16 1003.81 1003.94 1004.44 1004.90 1005.18 1005.58 1006.43 1006.92 1007.51 1007.96
1006.36 1004.70 1004.48 1004.23 1004.14 1004.34 1004.46 1004.50 1004.82 1005.44 1005.92 1006.28 1006.89 1007.16 1007.36 1007.31 1007.30 1007.57 1007.46 1007.38 1006.78 1006.23 1005.86 1005.42 1004.56 1003.67 1003.26 1002.67 1001.97 1001.78 1001.44 1001.54 1000.83 1001.04 1000.78 1001.16 1001.58 1002.36 1002.90 1003.45 1003.95 1004.19 1004.36 1004.42 1004.31 1004.65 1005.14 1005.74 1005.83 1006.23 1006.68 1007.40 1007.86 1007.93
1004.93 1004.19 1004.10 1003.82 1003.66 1003.62 1003.65 1003.72 1003.50 1003.61 1004.14 1004.85 1005.68 1006.26 1006.48 1006.85 1007.29 1007.59 1007.18 1006.91 1006.58 1006.17 1005.69 1005.25 1005.05 1004.13 1002.99 1002.09 1001.50 1001.27 1000.82 1000.69 1000.78 1001.58 1001.94 1002.08 1002.33 1002.80 1003.17 1003.53 1003.87 1004.40 1004.23 1004.51 1004.96 1005.24 1005.50 1005.59 1005.79 1006.03 1006.44 1007.17 1007.54 1007.78
1004.62 1004.18 1003.86 1003.60 1003.70 1003.53 1003.50 1003.34 1003.31 1003.18 1003.19 1003.41 1003.90 1004.98 1005.68 1006.34 1007.12 1007.08 1006.83 1006.04 1005.54 1005.14 1004.74 1004.22 1004.15 1003.63 1002.62 1001.90 1001.45 1001.34 1001.25 1001.28 1001.55 1001.85 1001.98 1002.49 1002.94 1003.03 1003.38 1003.61 1003.97 1004.53 1004.59 1004.87 1005.01 1005.27 1005.59 1005.76 1005.96 1006.21 1006.64 1006.92 1006.94 1007.20
1004.12 1003.82 1003.81 1003.56 1003.46 1003.41 1003.76 1003.74 1003.24 1002.92 1002.99 1002.56 1003.25 1004.06 1005.11 1005.87 1006.00 1005.83 1005.41 1005.13 1004.50 1003.95 1003.62 1003.06 1002.44 1002.01 1001.82 1001.96 1001.97 1001.89 1001.74 1001.95 1002.33 1002.45 1002.48 1002.66 1002.94 1003.15 1003.47 1003.84 1004.13 1004.04 1004.34 1004.80 1005.63 1005.82 1005.85 1006.04 1005.92 1005.76 1005.63 1005.71 1005.98 1006.53
1003.76 1003.12 1003.54 1003.86 1003.80 1003.82 1003.72 1003.60 1003.08 1003.19 1002.96 1003.15 1003.67 1004.24 1004.64 1004.82 1004.70 1004.23 1003.85 1003.70 1003.38 1003.26 1003.02 1002.59 1002.38 1002.18 1002.20 1002.37 1002.38 1002.36 1002.62 1002.86 1003.02 1002.98 1002.68 1002.90 1003.32 1003.66 1003.93 1003.98 1004.12 1004.16 1004.31 1004.39 1004.84 1005.41 1005.95 1005.94 1006.05 1005.94 1005.93 1005.73 1005.65 1005.66
1003.44 1002.97 1002.81 1003.08 1003.46 1003.76 1003.72 1003.48 1003.52 1003.33 1003.16 1003.48 1003.71 1003.98 1004.49 1004.70 1004.61 1004.42 1004.29 1004.31 1003.98 1003.11 1003.10 1002.93 1002.62 1002.68 1002.70 1002.70 1002.91 1002.99 1003.71 1004.44 1004.76 1004.89 1004.65 1004.25 1004.42 1004.88 1005.06 1005.09 1005.00 1004.86 1004.81 1004.82 1004.93 1004.96 1005.06 1005.50 1005.46 1005.50 1005.50 1005.50 1005.50 1005.64
1003.11 1002.90 1002.83 1002.96 1003.04 1002.98 1002.97 1002.88 1002.98 1003.14 1003.24 1003.29 1003.32 1003.44 1003.72 1003.80 1003.67 1003.68 1003.51 1002.88 1002.85 1003.13 1003.52 1003.14 1003.27 1003.73 1003.95 1004.33 1004.54 1005.01 1005.02 1005.31 1005.52 1005.72 1005.84 1005.81 1006.06 1006.28 1005.76 1005.37 1005.27 1005.28 1005.21 1005.24 1005.20 1005.15 1005.12 1005.15 1005.17 1005.08 1004.96 1004.80 1004.84 1005.06
1003.25 1003.20 1002.88 1002.73 1002.77 1002.92 1002.98 1003.04 1003.19 1003.26 1003.20 1003.17 1003.18 1003.10 1003.06 1003.33 1003.64 1003.80 1003.68 1003.54 1003.67 1003.73 1003.64 1003.55 1004.08 1004.63 1004.90 1005.04 1005.32 1005.69 1006.19 1006.92 1007.40 1007.44 1007.52 1007.58 1007.61 1007.48 1006.94 1006.45 1006.34 1006.20 1005.92 1005.66 1005.38 1005.18 1005.02 1005.00 1005.22 1005.21 1005.10 1004.96 1004.84 1004.91
Wind_Speed
15 15 15 16 16 15 16 17 15 14 15 13 13 12 11 11 11 7 8 8 8 9 17 21 15 11 11 9 9 13 5 6 8 13 12 12 13 15 5 20 5 10 11 11 13 7 14 13 23 28 5 8 5 7
15 15 16 16 16 16 17 17 14 14 14 14 13 12 12 11 9 6 7 7 7 8 15 20 19 19 17 16 13 10 13 10 7 7 7 9 14 7 8 1 6 15 12 11 7 12 5 5 11 13 14 13 5 2
15 16 16 17 17 17 17 16 15 15 14 15 14 13 14 13 8 8 8 5 4 7 12 16 17 21 21 19 15 9 9 10 7 9 5 7 6 3 3 3 7 15 16 19 3 12 7 13 30 12 14 13 9 7
16 17 17 16 17 17 16 15 15 15 15 15 14 14 13 10 9 7 8 6 4 5 8 4 14 13 13 17 21 18 19 16 12 8 7 8 10 9 2 3 3 4 17 19 5 8 22 10 11 12 15 12 12 12
18 18 18 17 17 16 15 15 15 14 14 15 14 15 13 10 10 7 6 8 8 5 5 11 24 20 15 11 16 17 16 14 8 8 8 10 10 11 6 6 2 4 16 12 5 12 13 8 11 14 13 14 16 14
18 18 17 17 17 17 17 17 15 14 14 15 13 11 8 7 8 2 2 8 11 5 4 7 7 14 15 18 14 14 12 11 10 9 7 9 16 9 6 7 13 24 22 20 14 25 45 15 15 15 14 15 16 14
16 15 16 16 17 17 17 16 15 14 12 10 8 8 8 9 6 3 2 4 6 0 3 6 7 14 16 13 10 8 13 8 9 10 12 12 12 7 9 10 13 29 19 22 16 16 11 6 13 14 15 17 17 20
12 12 12 13 12 11 12 14 11 6 9 7 6 6 7 10 3 2 4 4 4 3 4 5 8 7 13 7 10 9 8 8 10 10 10 11 12 12 11 13 18 16 6 4 10 8 17 13 15 17 18 18 19 19
10 10 11 11 9 10 6 9 9 9 8 7 9 13 3 2 2 3 7 3 3 2 3 5 9 2 9 9 7 8 7 8 5 8 12 10 12 11 10 14 14 9 5 8 13 12 11 16 16 16 19 21 20 18
8 8 9 8 8 4 5 6 7 8 6 18 4 2 2 4 6 13 1 3 5 6 4 8 9 9 6 8 8 8 4 4 9 11 11 14 14 17 18 16 7 9 10 15 11 15 18 18 17 19 19 17 16 16
11 10 10 8 8 8 7 8 10 13 17 3 3 4 1 16 4 3 4 5 5 5 8 9 14 12 11 4 5 5 7 8 13 10 13 12 14 16 18 20 10 9 13 12 16 16 17 20 17 18 18 18 16 16
9 10 5 9 8 8 9 13 26 11 5 4 2 3 2 2 3 4 4 4 6 6 7 11 11 13 7 1 4 2 4 4 7 9 16 18 10 15 19 20 11 8 10 11 10 13 13 13 18 19 17 15 15 15
9 6 4 6 4 9 18 16 8 12 7 3 1 3 3 6 5 7 9 5 6 6 8 9 10 10 8 3 3 2 5 5 5 9 17 13 13 14 16 16 12 7 11 13 14 23 14 19 19 18 15 13 15 12
9 8 2 4 10 14 10 10 8 2 3 2 3 2 5 6 9 9 11 10 11 10 9 6 8 9 8 9 4 5 9 9 8 9 13 7 9 11 4 9 13 13 18 17 16 25 23 12 17 14 12 11 12 12
8 8 1 6 10 9 8 7 1 1 1 3 6 5 10 11 13 8 9 7 9 4 3 6 8 8 8 4 6 6 5 6 5 12 10 8 9 6 9 9 13 14 14 17 18 21 15 5 9 12 11 10 10 10
9 6 5 12 13 10 7 4 3 2 2 5 8 8 8 8 11 4 3 8 6 2 3 3 6 2 4 6 9 9 7 7 10 5 8 4 10 9 8 10 13 15 17 17 17 16 6 2 7 8 11 8 9 10
6 3 3 13 14 10 6 3 3 4 6 5 6 8 12 10 11 10 5 3 2 4 4 5 6 8 6 8 13 10 14 3 0 3 7 11 6 9 10 14 18 18 17 20 20 18 20 10 7 9 10 10 10 10
5 2 8 10 11 6 4 4 2 5 6 6 8 9 6 6 9 9 6 3 5 10 11 5 5 7 6 9 11 7 3 5 3 3 4 7 4 8 10 13 15 15 17 16 16 16 16 16 14 10 9 10 9 8
6 6 10 16 6 3 4 5 3 4 7 8 10 11 7 9 8 9 7 6 6 5 3 3 5 6 6 3 2 2 2 3 3 3 6 6 5 10 12 14 14 13 15 14 13 10 10 12 13 11 8 9 9 8
14 13 12 18 7 3 2 3 2 5 6 5 8 8 8 8 5 5 5 4 4 4 5 4 4 3 4 2 4 4 6 5 5 6 5 5 5 12 15 15 13 14 13 13 12 9 8 7 3 6 8 9 9 9
3 5 11 10 3 2 3 3 5 4 5 5 7 7 4 4 3 2 4 3 3 3 3 3 3 3 5 6 7 7 8 7 7 6 8 7 7 11 12 12 16 13 11 10 10 8 12 8 6 9 9 8 7 8
4 8 3 3 2 4 4 3 4 5 4 4 3 2 2 2 1 1 4 4 3 2 4 4 4 6 7 9 8 7 11 10 8 7 8 9 10 12 11 11 12 12 8 4 3 4 1 8 8 9 9 8 9 8
10 3 3 3 4 5 4 4 5 5 4 2 1 2 1 1 2 3 2 2 3 3 5 7 8 9 10 11 12 11 10 8 8 6 8 10 7 6 6 4 6 11 11 7 5 8 9 9 9 9 9 9 9 7
7 7 7 8 7 7 5 5 5 3 1 2 2 1 0 1 1 1 1 1 3 6 6 8 5 7 8 10 8 2 8 12 4 5 9 6 6 6 7 7 7 7 3 5 3 7 8 7 12 10 10 10 9 7
3 6 6 6 8 6 6 6 4 3 2 4 3 2 0 2 1 2 3 2 4 5 5 5 4 4 4 5 3 1 9 4 8 11 7 8 9 7 7 7 2 6 9 6 6 7 7 6 6 8 9 8 8 6
3 2 6 10 6 4 4 3 5 5 3 2 2 1 1 1 2 3 3 3 4 4 5 5 5 6 4 4 6 3 4 6 7 5 3 6 7 9 6 8 7 6 5 5 5 8 7 8 7 9 6 7 8 9
5 6 3 3 4 3 2 4 5 3 4 4 3 3 3 2 3 2 3 2 2 2 3 4 4 4 4 4 2 4 5 6 11 11 8 8 9 8 8 7 10 7 4 9 8 8 7 7 8 8 7 6 8 11
2 3 10 8 4 4 5 4 4 5 3 3 3 2 3 4 3 2 3 5 7 7 7 7 9 8 3 3 6 7 8 9 10 10 9 11 9 8 9 8 7 9 6 4 4 5 5 4 4 5 8 8 8 3
2 3 5 12 10 5 5 4 4 2 4 3 7 4 5 3 5 4 6 10 9 5 4 4 4 4 7 7 7 7 8 8 9 11 11 8 7 8 8 7 6 5 6 5 5 6 7 7 4 1 9 8 8 10
2 4 7 7 8 5 3 2 9 10 8 11 11 11 9 7 4 0 4 5 4 6 5 5 5 5 6 7 7 9 10 10 11 10 8 9 8 7 6 4 4 2 1 2 6 9 4 4 4 5 6 6 7 5
3 1 8 9 7 7 6 5 7 4 8 10 9 9 9 7 5 2 5 3 3 3 5 2 5 4 4 6 6 6 9 8 8 9 9 7 8 7 6 6 4 4 4 5 5 5 6 9 8 9 10 11 13 10
3 5 6 8 7 6 7 6 7 9 9 8 8 8 9 6 8 5 0 2 4 7 1 3 8 8 9 7 7 8 10 9 9 9 12 9 7 7 6 5 3 4 4 5 6 7 9 10 10 11 11 13 12 13
6 3 2 2 4 4 3 2 2 4 6 8 9 9 9 9 9 4 2 6 6 4 4 7 9 7 7 8 7 8 10 8 9 9 10 10 9 9 7 8 8 8 8 8 7 8 7 5 7 10 10 10 11 10
Wind_Direction
278 274 268 271 271 272 277 280 279 278 288 283 272 271 274 280 298 269 292 305 299 290 292 295 300 301 292 269 290 5 291 254 264 264 240 251 250 259 117 271 272 282 217 236 241 230 256 129 136 244 142 146 148 85
270 271 272 273 271 271 274 276 273 273 278 278 277 270 270 271 282 270 276 295 304 263 284 311 297 293 290 293 305 301 321 300 350 295 264 277 254 288 324 263 24 263 248 237 275 214 160 49 121 139 145 137 153 147
275 273 271 271 269 270 269 270 269 270 271 272 272 270 263 261 259 243 275 324 273 271 273 251 251 247 235 243 259 268 275 323 325 358 318 293 288 92 103 354 350 292 350 314 139 15 317 114 209 153 135 138 149 143
274 272 272 272 271 269 266 264 266 268 267 267 266 267 259 260 250 245 258 266 300 285 283 332 223 250 223 216 221 240 264 295 299 305 292 286 300 301 146 126 148 11 332 301 85 38 337 127 135 150 125 132 149 134
278 276 274 273 274 273 268 267 267 264 264 263 261 257 250 242 231 245 262 266 267 268 311 306 313 278 267 247 220 219 240 253 264 268 262 266 280 292 270 171 38 42 281 279 296 160 231 203 155 137 151 150 134 149
273 272 271 268 265 263 258 259 260 259 258 259 251 261 244 224 182 123 269 229 245 223 275 290 342 259 264 204 217 225 221 232 243 255 261 257 271 276 271 256 169 178 220 270 276 147 212 147 146 153 146 145 143 136
283 274 271 268 262 259 253 250 257 256 251 243 248 236 207 178 162 195 253 343 321 118 241 274 261 205 225 197 209 215 213 226 233 241 248 265 278 304 265 255 214 201 178 187 320 81 12 121 147 134 134 116 108 99
304 296 284 276 271 269 265 235 240 248 226 194 200 193 161 139 84 253 267 260 315 206 249 269 268 241 179 183 197 200 213 209 226 239 245 249 249 241 245 237 252 271 17 358 314 249 168 177 136 125 124 121 122 118
298 305 308 303 271 253 242 211 219 192 204 179 140 117 95 160 154 238 120 312 337 315 270 249 274 64 175 203 181 181 220 207 226 226 237 258 244 230 228 238 269 288 264 263 212 216 199 144 134 146 139 132 128 126
301 301 303 304 293 251 215 203 203 200 187 129 121 153 182 200 168 126 110 219 214 177 216 261 275 268 313 220 179 173 218 215 231 218 227 220 250 254 250 254 247 268 271 251 201 219 146 147 160 154 141 128 124 119
313 304 290 292 279 259 244 246 228 149 144 154 169 206 281 147 167 191 201 208 204 227 206 229 233 257 258 281 266 157 187 216 228 229 209 231 223 232 248 265 224 247 256 248 224 176 164 166 164 142 127 123 118 118
323 314 309 324 302 251 259 155 140 149 153 164 126 61 138 204 193 214 202 236 213 241 208 206 215 208 257 50 256 285 266 246 240 212 228 230 236 215 223 245 227 237 256 273 309 167 147 150 125 115 114 118 122 120
344 342 1 9 43 132 137 130 86 103 140 70 157 172 222 180 200 213 189 212 223 219 241 201 196 187 219 226 249 218 288 257 269 250 226 225 216 235 215 219 178 155 66 45 29 26 308 99 106 116 116 123 134 134
345 356 59 83 122 124 114 124 128 131 75 204 204 224 234 219 216 212 226 210 230 273 301 307 194 184 198 189 221 235 195 266 220 245 244 236 234 284 167 146 180 129 98 83 66 49 316 102 98 104 129 130 125 122
295 317 284 163 160 131 129 130 179 282 253 238 228 225 221 244 282 313 281 246 221 109 275 321 274 183 197 207 202 237 235 218 237 224 255 240 169 202 166 164 120 127 128 108 106 85 303 316 115 125 121 113 122 133
267 259 230 170 181 190 171 185 230 213 251 236 230 241 263 272 272 277 304 295 352 6 109 304 270 201 152 229 216 204 236 219 225 16 337 94 140 154 173 129 128 130 127 125 122 132 225 298 98 102 119 133 134 127
304 229 261 178 175 171 189 260 215 223 251 259 245 230 250 254 265 288 308 291 315 289 219 225 209 192 205 231 239 214 242 96 282 351 331 337 232 161 163 140 138 133 141 146 144 149 146 185 152 125 145 156 148 128
233 206 193 168 155 151 192 207 242 257 250 257 257 263 266 282 291 289 277 152 242 241 222 239 301 236 205 224 217 206 100 183 141 250 313 324 236 177 158 144 138 145 142 141 142 152 146 143 152 152 169 131 126 115
213 207 190 169 163 158 181 200 210 266 253 266 266 268 280 290 269 265 276 276 283 271 206 187 251 250 248 315 15 324 358 300 310 20 302 272 237 183 159 154 141 145 141 141 144 144 146 158 151 155 170 156 155 151
241 219 189 171 169 125 194 224 191 257 276 279 277 273 283 268 283 290 306 344 292 219 204 205 233 276 326 331 319 296 299 304 313 310 303 270 201 179 172 157 154 151 149 147 149 145 146 161 193 153 164 147 163 144
177 185 166 159 162 240 243 229 212 233 272 282 311 312 295 306 254 267 270 296 249 226 229 250 295 323 339 326 314 301 287 292 307 299 307 272 200 175 181 157 145 164 155 174 161 147 169 170 148 142 137 133 128 126
106 164 110 170 132 173 253 236 261 316 267 256 272 234 299 301 33 360 294 253 274 320 331 332 323 311 317 305 307 301 299 266 274 258 256 277 192 165 164 157 146 148 138 114 89 99 85 114 117 97 115 120 123 127
140 151 128 118 183 195 251 164 221 215 246 241 240 244 257 320 12 294 271 311 310 330 327 303 297 287 286 292 282 275 264 274 267 208 231 232 192 156 121 74 123 137 139 167 209 189 132 116 95 128 128 122 131 130
143 168 191 182 204 193 205 187 220 250 219 238 230 190 109 354 270 239 272 283 285 291 283 278 290 295 288 264 244 338 316 322 304 203 165 169 136 65 64 69 53 47 8 50 163 133 154 156 128 145 131 152 153 149
228 235 209 194 176 214 192 169 170 198 228 200 180 134 181 233 295 348 326 315 315 299 311 313 315 292 310 0 46 217 262 116 98 95 147 149 103 87 115 105 141 210 190 188 128 125 120 129 121 128 135 144 151 141
247 273 25 355 12 13 352 352 161 152 165 116 81 155 219 271 349 2 320 316 309 317 322 335 337 330 2 330 53 180 182 136 103 85 64 112 134 103 116 117 115 93 96 108 115 129 128 115 133 152 144 141 181 194
338 355 8 289 303 318 358 4 358 74 134 152 171 186 202 86 40 334 292 275 276 260 271 286 287 279 267 278 101 71 58 76 83 81 77 77 85 113 130 125 107 113 131 135 141 146 158 176 191 197 160 153 176 207
313 286 355 46 46 11 39 1 0 10 30 355 147 87 36 44 10 300 260 259 251 266 257 247 211 226 209 58 90 97 86 81 83 96 94 99 105 93 101 102 86 60 82 67 148 167 193 200 194 176 170 191 197 163
275 30 74 44 32 40 22 1 344 18 352 52 91 95 86 148 193 219 225 231 249 238 261 263 170 118 108 110 110 114 109 105 109 114 109 105 107 108 114 114 138 174 133 135 71 60 37 36 40 214 201 204 204 173
41 91 100 73 59 54 28 48 50 92 89 94 101 105 101 92 89 110 71 45 75 76 43 44 73 84 93 87 68 56 47 42 31 23 60 80 80 68 61 50 55 38 73 171 185 164 161 233 215 251 254 272 277 235
132 47 74 108 108 104 107 72 97 76 84 87 95 106 109 122 132 175 135 177 234 200 128 140 92 90 72 63 49 98 83 56 47 41 20 40 44 49 18 358 319 316 314 297 295 287 202 203 223 227 235 239 251 257
160 90 95 91 82 105 150 141 132 140 144 135 125 138 162 149 100 96 243 288 155 99 353 328 73 55 46 57 77 75 64 66 48 39 27 34 35 12 344 336 359 332 310 293 282 268 263 260 265 268 276 268 247 255
57 38 17 77 126 115 64 54 67 38 54 51 37 30 47 69 71 86 78 43 42 53 24 65 76 74 69 70 93 93 77 77 78 75 69 57 42 8 328 358 10 343 329 316 309 306 299 288 285 286 294 300 300 312